STARLINK-34350, 64276

Orbit data source: Space-Track

STARLINK-34350, 64276 is a payload satellite owned by SpaceX/Seattle (US) in LEO that was launched on Wed, 04 Jun 2025 UTC via an FALCON 9 launch vehicle from the Air Force Western Test Range (AFWTR). Payload-class satellites include a variety of spacecraft equipped with specific instruments for various scientific and technological missions. These include communications satellites like Starlink; space stations such as the ISS; scientific satellites like the Hubble; Earth observation satellites from companies like Planet Labs, Umbra, and HawkEye 360; GPS; miniature CubeSats for education and research; and military/defense satellites.

Loading next visibility...
Identifier
64276, 2025-120W
Orbit
LEO
Country
Flag of USUS
Related business
Manufacturer
SpaceX/Seattle
Mission
Operational Commercial Communications
Bus & Motor
STARLINK V2MO, Unknown motor
Mass
575 kg wet, ~530 kg dry
Launch date (UTC)
2025-06-04 (1 year ago)
Launch vehicle
FALCON 9
Launch site
Air Force Western Test Range (AFWTR)
Object type
Payload
Rocket body
Debris
Shape & HBR
Box + 2 Pan, 17.7 m
Radar Cross Section
36.964 m², Large (>1 m²)

Expand to show TLE details & history
Last TLE update: 22 hours ago

TLE from 22 hours ago
0 STARLINK-34350
1 64276U 25120W   26170.93265174  .00033604  00000-0  10012-2 0  9990
2 64276  53.1598 358.6851 0000978  80.1269 279.9844 15.34402196 59613
Epoch: 2026-06-19T22:23Z
TLE epoch observation values (Epoch: 2026-06-19T22:23:01.110Z)
Latitude
-0.00001°
Longitude
114.77594°
Altitude
463.482 km
Speed
7.636 km/s
True Right ascension
23h 54m 44s
True Declination
0° 00' 00"
Sunlit
Object was in daylight at epoch
Visualization orbit readout
Latitude
Unknown
Longitude
Unknown
Altitude
Unknown
Speed
Unknown
Apparent Right ascension
Unknown
Apparent Declination
Unknown
Sunlit
N/A
Visualization observer readout
Local Sidereal Time
07:13:08
Azimuth
Unknown
Elevation
Unknown
Doppler factor
Unknown
Orbital elements
Apogee altitude
463.623 km
Perigee altitude
462.285 km
Semi-major axis
6,841.091 km
Eccentricity
0.0001
Inclination
53.1598°
RAAN
358.6851°
Arg. of periapsis
80.1269°
True anomaly
279.97336°
Mean anomaly
279.9844°
Eccentric anomaly
279.97888°
Mean motion
3.83579 °/min
Orbital period
93.85 mins
BSTAR
0.0010012
Loading maneuver chart data...
Computing Atmospheric mass density...
Loading historical data...
Loading historical data...
Loading historical data...
Loading historical data...
Loading historical data...
Loading historical data...
Loading historical data...

Documentation

Showing up to 5 results
|